Tracking 27188 objects as of 1-Apr-2023
HD Live streaming from Space Station
objects crossing your sky now

MDASAT-1A

Track MDASAT-1A now!
10-day predictions


NORAD ID: 50995
Int'l Code: 2022-002M
Perigee: 511.8 km
Apogee: 526.0 km
Inclination: 97.4 °
Period: 94.9 minutes
Semi major axis: 6889 km
RCS: Unknown
Launch date: January 13, 2022
Source: South Africa (SAFR)
Launch site: AIR FORCE EASTERN TEST RANGE (AFETR)
Your satellite tracking list
Your tracking list is empty




NASA's NSSDC Master Catalog

Two Line Element Set (TLE):
1 50995U 22002M   23091.17380783  .00015866  00000-0  78041-3 0  9995
2 50995  97.4425 157.9918 0010321 140.4978 219.7010 15.18050434 66981
Source of the keplerian elements: AFSPC